Menomonie, WI

2:05 AM CST on January 20, 2018 (GMT -0600)
Menomonie

Weather History for KLUM - January, 2014

Change the Weather History Date:

Wednesday, January 8, 2014

  Actual Average (KEAU) Record (KEAU)
Temperature  
Mean Temperature -8 °F -  
Max Temperature 2 °F 17 °F 53 °F (2003)
Min Temperature -17 °F -1 °F -30 °F (1894)
Degree Days  
Heating Degree Days 72    
Moisture  
Dew Point -15 °F    
Average Humidity 69    
Maximum Humidity 79    
Minimum Humidity 53    
Precipitation  
Precipitation 0.00 in - - ()
Sea Level Pressure  
Sea Level Pressure 30.39 in    
Wind  
Wind Speed 3 mph (West)    
Max Wind Speed 8 mph    
Max Gust Speed -    
Visibility 9 miles    
Events Snow    
Averages and records for this station are not official NWS values.
T = Trace of Precipitation, MM = Missing Value Source: NWS Daily Summary

Daily Weather History Graph

Daily Weather History Graph

Search for Another Location

Airport or City:

Trip Planner

Search our weather history database for the weather conditions in past years. The results will help you decide how hot, cold, wet, or windy it might be!

Date:

Astronomy

Jan. 08, 2014 Rise Set
Actual Time 7:44 AM CST 4:44 PM CST
Civil Twilight 7:11 AM CST 5:17 PM CST
Nautical Twilight 6:34 AM CST 5:54 PM CST
Astronomical Twilight 5:59 AM CST 6:29 PM CST
Moon 11:45 AM CST (1/8) 12:41 AM CST (1/8)
Length of Visible Light 10h 05m
Length of Day
8h 59m
First Quarter, 56% of the Moon is Illuminated
Jan 8
First Quarter
Jan 15
Full
Jan 23
Last Quarter
Jan 30
New
Feb 6
First Quarter

Hourly Weather History & Observations

Time (CST) Temp. Windchill Dew Point Humidity Pressure Visibility Wind Dir Wind Speed Gust Speed Precip Events Conditions
12:15 AM -8.9 °F - -14.6 °F 76% 30.24 in 10.0 mi Calm Calm - N/A   Overcast
12:35 AM -7.8 °F -16.7 °F -13.0 °F 78% 30.24 in 10.0 mi WSW 3.5 mph - N/A   Overcast
12:55 AM -7.1 °F - -13.0 °F 75% 30.24 in 10.0 mi Calm Calm - N/A   Mostly Cloudy
1:15 AM -7.6 °F - -13.5 °F 75% 30.25 in 10.0 mi Calm Calm - N/A   Scattered Clouds
1:35 AM -8.3 °F - -13.9 °F 77% 30.26 in 10.0 mi Calm Calm - N/A   Clear
1:55 AM -8.7 °F - -13.7 °F 79% 30.25 in 7.0 mi Calm Calm - N/A   Clear
2:15 AM -9.6 °F - -14.8 °F 78% 30.26 in 10.0 mi Calm Calm - N/A   Clear
2:35 AM -10.7 °F - -16.1 °F 77% 30.26 in 3.0 mi Calm Calm - N/A   Haze
2:55 AM -9.8 °F - -15.0 °F 78% 30.27 in 1.5 mi Calm Calm - N/A   Haze
3:15 AM -9.8 °F - -15.0 °F 78% 30.26 in 10.0 mi Calm Calm - N/A   Clear
3:35 AM -10.8 °F - -16.1 °F 78% 30.27 in 10.0 mi Calm Calm - N/A   Clear
3:55 AM -11.2 °F -23.0 °F -16.8 °F 76% 30.27 in 7.0 mi West 4.6 mph - N/A   Clear
4:15 AM -11.2 °F -23.0 °F -16.8 °F 76% 30.28 in 2.0 mi West 4.6 mph - N/A   Haze
4:35 AM -11.4 °F -20.8 °F -16.8 °F 77% 30.28 in 5.0 mi WNW 3.5 mph - N/A   Haze
4:55 AM -11.9 °F - -17.5 °F 76% 30.29 in 5.0 mi Calm Calm - N/A   Haze
5:15 AM -11.2 °F -24.8 °F -16.6 °F 77% 30.29 in 10.0 mi WSW 5.8 mph - N/A   Clear
5:35 AM -10.8 °F -24.4 °F -16.6 °F 76% 30.30 in 10.0 mi West 5.8 mph - N/A   Clear
5:55 AM -10.3 °F -25.4 °F -15.9 °F 76% 30.31 in 7.0 mi West 6.9 mph - N/A   Clear
6:15 AM -10.3 °F -21.9 °F -15.9 °F 76% 30.31 in 5.0 mi West 4.6 mph - N/A   Haze
6:35 AM -11.2 °F -23.0 °F -16.6 °F 77% 30.32 in 10.0 mi West 4.6 mph - N/A   Clear
6:55 AM -11.2 °F -23.0 °F -16.8 °F 76% 30.32 in 10.0 mi WSW 4.6 mph - N/A   Clear
7:15 AM -10.5 °F -22.1 °F -15.9 °F 77% 30.34 in 10.0 mi WSW 4.6 mph - N/A   Clear
7:35 AM -11.2 °F -20.6 °F -17.0 °F 76% 30.35 in 10.0 mi WSW 3.5 mph - N/A   Clear
7:55 AM -12.6 °F -22.3 °F -18.6 °F 75% 30.35 in 10.0 mi West 3.5 mph - N/A   Clear
8:15 AM -12.8 °F -22.5 °F -18.6 °F 75% 30.36 in 1.8 mi West 3.5 mph - N/A Snow Light Snow
8:35 AM -11.6 °F -23.4 °F -17.1 °F 76% 30.38 in 10.0 mi West 4.6 mph - N/A   Clear
8:55 AM -10.3 °F -19.6 °F -15.9 °F 76% 30.39 in 10.0 mi West 3.5 mph - N/A   Clear
9:15 AM -9.8 °F -24.7 °F -15.2 °F 77% 30.40 in 10.0 mi West 6.9 mph - N/A   Clear
9:35 AM -8.9 °F -23.6 °F -14.8 °F 75% 30.41 in 10.0 mi West 6.9 mph - N/A   Clear
9:55 AM -8.5 °F -24.5 °F -14.1 °F 77% 30.42 in 10.0 mi West 8.1 mph - N/A   Clear
10:15 AM -7.8 °F -22.3 °F -13.5 °F 76% 30.42 in 10.0 mi West 6.9 mph - N/A   Clear
10:35 AM -6.7 °F -19.5 °F -14.3 °F 70% 30.43 in 10.0 mi West 5.8 mph - N/A   Clear
10:55 AM -5.8 °F -16.7 °F -14.3 °F 67% 30.43 in 10.0 mi West 4.6 mph - N/A   Scattered Clouds
11:15 AM -4.5 °F -15.2 °F -14.1 °F 64% 30.43 in 10.0 mi West 4.6 mph - N/A   Clear
11:35 AM -3.3 °F -11.6 °F -13.9 °F 60% 30.42 in 10.0 mi West 3.5 mph - N/A   Clear
11:55 AM -2.4 °F -12.7 °F -13.5 °F 59% 30.42 in 10.0 mi West 4.6 mph - N/A   Clear
12:15 PM -1.3 °F -11.4 °F -13.0 °F 58% 30.42 in 10.0 mi West 4.6 mph - N/A   Clear
12:35 PM -0.4 °F -8.3 °F -12.3 °F 57% 30.42 in 10.0 mi West 3.5 mph - N/A   Clear
12:55 PM 0.1 °F -9.7 °F -12.1 °F 56% 30.41 in 10.0 mi WSW 4.6 mph - N/A   Clear
1:15 PM 1.4 °F -11.3 °F -11.2 °F 56% 30.41 in 10.0 mi West 6.9 mph - N/A   Clear
1:35 PM 1.4 °F -9.9 °F -12.1 °F 53% 30.41 in 10.0 mi West 5.8 mph - N/A   Clear
1:55 PM 1.8 °F -9.5 °F -11.9 °F 53% 30.41 in 10.0 mi West 5.8 mph - N/A   Clear
2:15 PM 1.9 °F -9.2 °F -11.6 °F 53% 30.42 in 10.0 mi WNW 5.8 mph - N/A   Clear
2:35 PM 2.3 °F -8.8 °F -11.2 °F 53% 30.42 in 10.0 mi West 5.8 mph - N/A   Clear
2:55 PM 2.3 °F -8.8 °F -11.2 °F 53% 30.43 in 10.0 mi West 5.8 mph - N/A   Clear
3:15 PM 2.1 °F -9.0 °F -11.4 °F 53% 30.43 in 10.0 mi West 5.8 mph - N/A   Clear
3:35 PM 1.8 °F -7.8 °F -11.9 °F 53% 30.44 in 10.0 mi West 4.6 mph - N/A   Clear
3:55 PM 1.4 °F -8.3 °F -11.7 °F 54% 30.44 in 10.0 mi West 4.6 mph - N/A   Clear
4:15 PM 0.9 °F -8.9 °F -12.1 °F 55% 30.44 in 10.0 mi WSW 4.6 mph - N/A   Clear
4:35 PM -0.0 °F -11.6 °F -12.1 °F 57% 30.44 in 10.0 mi West 5.8 mph - N/A   Clear
4:55 PM -1.3 °F -11.4 °F -12.8 °F 58% 30.44 in 10.0 mi West 4.6 mph - N/A   Clear
5:15 PM -2.0 °F -12.2 °F -13.0 °F 60% 30.45 in 10.0 mi West 4.6 mph - N/A   Clear
5:35 PM -2.9 °F -13.3 °F -13.2 °F 62% 30.45 in 10.0 mi West 4.6 mph - N/A   Clear
5:55 PM -3.3 °F -13.7 °F -13.0 °F 63% 30.45 in 10.0 mi West 4.6 mph - N/A   Clear
6:15 PM -3.8 °F -12.2 °F -13.4 °F 64% 30.45 in 10.0 mi West 3.5 mph - N/A   Clear
6:35 PM -4.5 °F - -13.2 °F 66% 30.46 in 10.0 mi Calm Calm - N/A   Clear
6:55 PM -4.4 °F - -13.2 °F 66% 30.46 in 10.0 mi Calm Calm - N/A   Clear
7:15 PM -6.3 °F -15.1 °F -14.1 °F 69% 30.46 in 10.0 mi WSW 3.5 mph - N/A   Clear
7:35 PM -9.4 °F - -16.6 °F 71% 30.46 in 10.0 mi Calm Calm - N/A   Clear
7:55 PM -9.2 °F - -16.2 °F 71% 30.46 in 10.0 mi Calm Calm - N/A   Clear
8:15 PM -9.2 °F - -15.9 °F 73% 30.47 in 10.0 mi Calm Calm - N/A   Clear
8:35 PM -10.1 °F - -15.9 °F 76% 30.47 in 10.0 mi Calm Calm - N/A   Clear
8:55 PM -12.1 °F - -17.9 °F 76% 30.47 in 10.0 mi Calm Calm - N/A   Clear
9:15 PM -11.9 °F - -17.5 °F 76% 30.47 in 10.0 mi Calm Calm - N/A   Clear
9:35 PM -14.6 °F - -20.9 °F 73% 30.47 in 10.0 mi Calm Calm - N/A   Clear
9:55 PM -13.4 °F - -19.3 °F 75% 30.47 in 10.0 mi Calm Calm - N/A   Clear
10:15 PM -15.9 °F - -21.8 °F 74% 30.47 in 10.0 mi Calm Calm - N/A   Clear
10:35 PM -14.4 °F - -20.4 °F 75% 30.46 in 10.0 mi Calm Calm - N/A   Clear
10:55 PM -15.0 °F - -21.1 °F 74% 30.45 in 10.0 mi Calm Calm - N/A   Clear
11:15 PM -14.3 °F - -19.8 °F 76% 30.45 in 10.0 mi Calm Calm - N/A   Clear
11:35 PM -17.7 °F - -24.0 °F 73% 30.46 in 10.0 mi Calm Calm - N/A   Clear
11:55 PM -15.7 °F - -21.8 °F 74% 30.45 in 10.0 mi Calm Calm - N/A   Clear